Temp
7 7 7 7 7 7 7 7 7 7 7 7 7 7 7 7 8 8 8 8 8 8 8 8 8 9 9 10 10 10 11 11 12 14 16 19 19 18 18 19 19 19 19 19 19 20 21 22 23 23 24 24 25 25 24 25 26 25 26 25 24 26 27 27 28 27 27 28 28 28 28 28 28 29 29 29 29 28 27 27 27 27 27 27 27 26 24 22
7 7 7 7 7 7 7 7 7 7 7 7 7 7 7 7 7 8 8 8 8 8 8 8 8 9 10 11 11 10 10 11 14 17 19 19 19 18 18 18 19 19 19 20 21 22 22 23 23 23 24 24 25 25 24 25 25 25 26 25 26 28 27 27 27 27 27 27 27 28 28 28 28 28 29 29 29 29 28 27 27 26 26 26 27 26 23 22
6 6 7 7 7 7 7 7 7 7 7 7 7 7 7 7 8 8 8 8 8 8 8 8 8 9 11 11 12 11 11 13 17 20 20 19 19 18 18 18 18 19 19 21 22 23 23 23 23 24 24 25 25 24 24 24 25 25 26 25 27 28 26 26 27 26 26 27 27 27 28 28 28 29 29 28 29 29 29 28 28 27 26 26 26 25 23 22
6 6 6 7 7 7 7 7 7 7 7 7 7 7 7 7 7 7 7 7 7 8 7 8 9 11 12 12 14 12 12 17 21 22 20 19 20 19 18 18 18 18 19 21 22 23 24 24 24 24 25 25 24 24 24 24 25 26 25 26 27 26 26 27 26 26 27 27 26 27 27 28 29 29 29 29 29 30 30 29 29 28 27 26 26 25 23 22
6 6 7 7 7 7 7 7 7 7 7 7 7 7 7 7 7 7 7 7 7 7 7 8 10 12 13 14 14 12 14 20 23 21 20 20 20 19 18 18 18 18 18 20 22 22 23 24 24 24 24 25 24 24 25 25 25 25 25 26 26 25 26 27 26 26 26 27 27 27 27 28 28 29 29 29 28 30 30 29 29 29 28 26 26 26 24 23
7 7 7 7 7 7 7 7 7 7 7 7 7 7 7 7 7 7 7 7 7 7 7 8 11 12 14 15 14 13 17 22 22 21 20 20 20 19 19 18 18 18 19 21 22 22 23 23 23 23 24 25 24 24 25 25 25 25 26 26 25 25 26 26 26 26 26 27 26 27 27 27 28 28 29 29 29 30 30 29 29 29 28 27 26 25 24 23
6 7 7 7 7 7 7 7 7 7 7 7 7 7 7 7 7 7 7 7 7 7 7 9 11 13 14 15 14 15 20 23 22 20 20 19 19 19 19 18 18 18 20 22 22 23 23 23 24 24 25 25 24 25 25 25 25 24 26 26 25 25 25 26 26 26 26 26 26 27 27 27 27 28 29 29 29 30 30 29 29 29 29 27 26 25 24 23
6 6 6 6 7 7 7 7 7 7 7 7 7 7 7 7 7 7 7 7 7 7 7 9 12 13 14 15 16 19 22 23 21 19 19 19 19 19 18 18 18 19 21 23 23 23 23 23 24 24 25 25 25 25 24 25 25 24 25 26 25 25 26 26 26 26 26 26 27 27 26 27 28 28 28 29 30 30 28 28 29 29 28 26 25 25 24 23
6 6 6 6 7 6 7 7 7 7 7 7 7 7 7 7 7 7 7 7 7 7 7 9 12 13 13 14 18 22 23 21 20 19 18 18 19 19 18 18 18 20 22 23 23 23 24 24 24 24 25 25 24 25 24 24 25 25 25 26 25 25 26 26 26 26 26 26 27 26 26 28 28 28 28 29 29 28 28 28 28 28 27 26 25 24 24 23
6 6 6 6 6 6 7 7 7 7 7 7 7 7 7 6 7 7 7 8 8 8 7 8 12 13 12 15 19 22 21 20 19 19 18 17 18 19 19 19 19 21 22 22 23 23 24 24 25 24 24 24 24 25 24 24 25 25 25 25 25 25 26 26 26 26 26 27 27 26 26 28 28 27 28 29 28 27 27 27 28 27 27 26 25 24 23 23
6 6 6 6 6 6 7 7 7 7 7 7 7 7 7 6 7 7 7 8 8 8 7 8 11 12 13 16 20 22 21 19 19 19 18 17 18 19 20 20 20 21 22 22 23 23 23 24 24 24 24 24 24 24 24 25 25 25 25 25 25 25 25 25 26 26 26 27 27 27 27 27 28 27 28 29 27 27 27 27 27 27 27 26 25 25 23 22
6 6 6 6 6 6 6 7 7 7 7 7 7 6 6 6 7 8 8 7 8 8 7 8 10 11 13 17 20 21 21 19 19 19 18 18 19 19 19 19 20 21 22 23 23 23 22 23 24 23 24 24 24 24 24 25 25 24 24 24 25 25 25 26 26 26 26 26 27 27 26 26 28 28 29 29 27 27 27 27 27 27 27 26 25 25 23 21
6 6 6 6 6 6 6 6 6 6 6 6 6 6 6 8 10 11 9 8 7 7 7 8 9 10 13 18 21 20 19 18 18 18 18 19 19 19 19 19 20 21 21 22 23 22 22 22 23 24 24 24 25 24 24 25 24 24 25 24 25 25 25 26 26 26 26 26 27 26 23 25 29 29 29 28 27 27 27 28 27 27 27 26 26 24 22 20
6 6 6 6 6 6 6 6 6 6 6 6 6 6 7 10 11 12 10 9 8 7 7 8 9 10 14 19 21 19 19 18 17 18 19 19 20 20 19 19 19 20 20 21 21 21 21 22 22 23 24 24 25 24 24 24 24 25 25 24 25 24 24 26 26 26 26 25 26 26 23 25 29 29 28 27 27 27 27 28 28 28 27 27 26 24 22 21
6 6 6 6 6 6 6 6 6 6 6 6 6 7 9 10 11 11 11 9 9 8 7 8 9 12 16 20 20 18 18 18 18 19 19 19 20 21 20 19 19 19 20 20 21 21 21 21 22 23 23 24 24 24 24 24 24 25 23 23 24 23 24 26 26 26 26 26 27 26 23 26 30 29 28 27 27 27 27 28 28 28 27 27 26 23 22 23
6 6 6 6 6 6 6 6 6 6 6 6 7 8 9 9 9 10 10 9 9 8 8 10 11 12 17 21 19 17 18 19 20 20 19 19 20 21 21 20 20 19 20 20 20 21 21 22 22 23 24 23 23 24 24 24 23 25 23 22 23 23 24 25 26 26 26 26 27 26 25 27 29 29 28 27 27 27 27 28 28 28 27 27 25 23 23 23
6 6 6 6 6 6 6 6 6 6 6 6 8 9 9 8 8 9 9 9 9 8 9 13 13 13 17 20 19 19 20 20 20 20 19 19 20 21 21 21 21 20 21 21 20 21 22 22 22 23 23 23 24 24 23 21 22 23 23 23 23 24 23 24 25 26 26 26 26 26 26 27 28 29 28 28 27 27 27 28 28 28 27 26 25 23 23 23
5 5 6 6 5 5 6 6 6 6 6 8 10 10 9 9 8 9 9 9 9 10 11 12 13 16 19 20 20 21 21 21 20 20 19 19 19 20 21 22 22 21 21 21 21 22 22 22 22 22 23 23 24 24 22 21 22 22 23 22 23 23 23 23 24 25 26 25 26 26 26 26 28 29 29 28 28 27 27 28 28 28 27 26 25 23 24 24
5 5 5 5 5 5 5 6 6 6 7 9 10 9 9 9 8 10 11 11 12 15 16 15 15 19 20 20 21 21 21 20 20 20 20 19 20 21 22 22 22 22 22 21 21 22 22 22 22 22 22 22 23 24 23 24 24 23 23 23 23 23 23 24 25 25 25 25 25 25 25 26 28 28 29 29 28 27 27 28 28 28 27 26 26 24 24 24
5 5 5 5 5 5 5 6 6 6 7 9 9 9 11 12 14 14 13 13 16 18 19 18 18 20 20 20 21 21 21 21 21 21 21 19 20 21 22 22 22 22 22 22 22 22 22 22 21 22 23 24 24 24 25 24 23 23 24 23 23 23 23 25 24 25 25 24 24 26 26 26 27 28 29 29 28 27 27 28 27 28 27 27 26 25 24 23
5 5 5 5 5 5 5 5 6 7 9 9 8 12 16 16 17 17 15 16 19 19 19 19 19 20 20 20 21 20 21 21 22 22 21 20 21 22 22 22 21 21 22 23 22 21 22 21 22 23 24 24 24 23 23 23 23 23 23 23 23 23 24 25 24 25 25 23 24 26 25 26 27 27 28 29 28 27 27 28 28 28 28 27 27 26 25 24
5 5 5 5 5 5 5 5 7 9 9 9 10 14 17 15 14 14 15 17 19 19 18 18 19 18 19 19 19 19 19 20 21 22 21 20 22 22 22 22 21 22 22 22 21 21 21 21 23 24 24 23 23 23 22 22 22 23 23 23 22 24 24 24 24 24 25 23 24 26 25 25 27 27 28 28 28 28 28 28 28 28 28 28 27 26 25 24
5 5 5 5 5 5 5 6 8 9 9 9 12 15 15 13 13 13 14 16 18 19 19 18 18 18 19 19 19 18 18 20 21 22 21 20 22 22 22 22 22 22 22 21 21 21 21 22 24 24 23 22 22 22 22 22 22 22 23 22 22 24 23 22 23 24 24 24 24 25 24 24 26 27 27 28 28 28 28 28 28 28 28 28 28 26 25 25
5 5 5 5 5 5 6 7 8 9 8 9 12 13 13 12 12 13 14 16 18 19 19 18 18 19 19 19 18 18 19 20 21 22 22 21 22 22 22 22 22 22 22 22 22 22 22 23 24 23 22 22 22 21 22 21 22 23 23 22 22 24 23 22 24 24 24 24 24 24 22 23 26 27 27 28 28 28 28 28 27 27 27 28 28 27 26 25
5 5 5 5 5 6 7 8 9 9 9 11 12 12 12 12 12 12 14 17 19 19 19 18 18 19 19 18 18 19 20 20 21 23 23 22 23 22 22 23 23 22 22 22 22 22 23 23 23 22 22 22 22 22 22 22 22 22 23 23 23 23 23 24 24 23 22 22 24 23 21 22 26 27 27 28 28 28 28 27 27 27 27 27 27 27 26 26
4 4 5 5 5 6 8 10 10 9 10 13 13 12 11 11 11 12 14 18 20 20 19 18 19 19 19 19 19 19 19 20 21 23 23 23 24 23 22 23 23 22 23 23 22 22 23 22 22 22 22 22 22 22 23 22 21 22 23 24 24 24 24 23 23 22 21 22 23 24 21 21 24 26 27 28 28 28 27 27 27 28 28 27 27 27 26 26
4 4 4 5 4 6 9 11 9 10 13 13 12 11 11 12 12 12 14 18 19 20 20 19 20 19 19 20 20 19 19 20 21 22 22 23 24 23 22 22 22 22 23 22 21 22 22 22 21 22 22 22 22 22 23 23 21 22 24 24 24 24 23 23 23 22 22 23 23 24 23 21 21 24 28 28 27 28 28 26 26 26 26 27 27 27 27 26
4 4 4 5 4 4 7 8 9 12 14 12 11 11 11 11 12 13 16 18 19 20 20 20 19 19 20 20 20 20 20 21 21 21 22 23 23 23 22 22 23 22 23 22 20 22 22 21 21 21 21 21 22 23 23 23 22 23 24 23 23 24 23 23 23 22 23 22 21 23 23 21 21 24 27 27 26 27 27 26 25 25 25 25 25 26 26 26
4 4 4 4 4 5 5 6 8 12 11 10 11 11 11 11 12 15 17 18 19 20 20 20 19 19 20 20 19 20 20 21 21 21 21 22 22 22 22 23 24 23 22 22 22 22 22 22 22 22 22 22 23 24 24 23 22 23 24 23 23 23 23 23 23 22 22 21 20 22 23 21 21 23 26 26 25 26 26 25 24 24 24 24 24 25 25 26
4 4 4 4 5 7 7 6 8 10 10 10 11 11 11 12 14 17 17 17 19 20 20 20 20 20 21 20 20 20 20 21 21 21 21 21 22 22 22 23 24 23 22 22 23 23 22 22 22 22 23 23 24 24 24 23 23 23 23 23 23 23 23 23 23 23 21 20 21 22 22 22 21 22 25 25 24 24 25 24 24 23 23 23 23 24 25 25
4 4 4 4 6 7 8 10 10 9 10 10 11 11 13 15 17 17 17 18 19 20 20 20 20 21 21 20 21 20 20 21 21 21 21 21 21 21 22 22 22 22 21 21 22 22 22 21 22 23 23 23 23 23 23 23 23 23 23 23 22 22 22 22 22 22 20 20 21 22 23 22 20 22 25 25 24 24 24 23 23 22 23 23 23 24 24 24
4 4 4 4 5 5 8 11 11 9 10 10 11 13 15 16 17 17 18 18 18 19 20 19 20 21 20 20 21 21 21 21 21 21 21 21 21 21 22 22 21 21 20 21 21 22 22 22 23 23 23 23 23 22 22 22 22 22 22 22 21 21 21 20 20 21 20 21 21 22 23 21 21 23 25 24 24 23 23 23 22 22 22 23 23 23 23 23
4 4 4 5 5 5 7 10 9 9 10 10 12 15 17 16 16 17 19 19 18 18 19 19 20 20 20 21 21 21 21 21 21 22 22 22 21 21 22 23 23 22 21 21 21 20 21 22 23 23 23 23 23 22 21 21 22 22 22 21 20 20 20 20 20 20 21 21 21 22 22 21 22 24 24 24 23 23 23 23 22 22 22 23 23 23 23 23
5 5 5 5 6 6 8 8 8 9 9 11 14 16 16 16 17 17 18 19 18 18 19 19 19 20 21 21 21 21 21 21 21 22 22 22 21 21 22 22 23 23 22 21 21 21 20 21 22 23 23 23 23 23 23 23 23 23 23 23 21 21 20 20 20 21 21 21 21 22 21 21 21 22 23 24 23 23 23 22 22 21 21 22 22 22 22 22
7 7 6 6 7 8 8 8 8 9 10 13 16 16 15 16 17 18 17 18 18 18 19 19 19 20 21 21 21 21 21 20 21 22 22 22 21 21 22 22 22 23 22 21 20 21 20 20 23 24 23 24 23 23 24 24 23 24 25 23 21 22 22 21 20 20 20 21 21 21 21 22 23 23 23 24 23 23 22 21 20 20 20 21 21 21 20 20
8 8 8 8 8 9 9 8 8 8 11 15 16 16 16 17 17 18 17 17 17 17 19 19 20 20 20 21 21 21 21 20 21 21 21 22 22 22 22 22 23 22 22 21 21 21 20 21 23 23 22 24 24 24 25 24 22 23 23 22 23 25 24 21 20 20 20 20 21 21 21 23 24 23 23 23 22 21 21 19 19 19 19 19 19 19 20 19
7 9 10 11 9 10 9 9 9 9 12 16 16 16 17 17 17 17 17 17 17 17 18 19 19 19 20 20 21 21 21 21 21 21 21 21 21 22 22 23 23 23 23 23 21 22 21 21 23 23 22 23 24 24 24 24 24 23 22 23 24 25 24 22 20 20 20 20 21 21 21 21 22 21 22 23 21 20 20 19 18 19 19 18 18 18 19 19
7 9 12 12 11 11 11 10 10 12 15 16 15 15 16 16 16 16 17 17 17 17 18 18 18 19 19 20 20 20 20 20 20 21 21 21 20 21 22 22 22 22 23 23 22 22 22 20 22 23 23 23 23 23 22 24 25 23 23 24 24 22 21 21 21 20 20 20 20 21 21 21 21 21 21 21 20 19 19 18 18 18 18 18 18 18 18 18
7 11 13 12 11 12 12 11 11 14 16 16 16 16 16 16 16 16 17 16 17 17 17 18 18 18 19 19 19 20 20 20 20 20 21 21 20 19 20 21 21 22 22 23 22 22 22 20 21 23 23 23 23 22 22 22 23 23 23 24 24 22 21 21 21 21 21 20 21 21 21 21 21 20 21 21 21 20 19 18 18 18 18 19 19 19 19 19
10 13 14 11 11 12 11 11 13 16 16 16 16 16 16 16 16 16 17 16 17 17 17 17 18 18 18 19 19 19 20 20 20 20 20 21 20 19 19 20 20 21 21 21 22 22 22 20 20 22 23 22 22 22 22 22 23 23 22 22 22 23 22 22 22 22 21 20 21 20 21 21 20 19 20 20 20 20 19 19 18 18 19 19 19 19 19 19
12 14 13 11 11 11 11 12 15 16 16 16 16 16 15 16 16 16 17 16 16 17 17 17 17 18 18 18 19 19 19 20 20 20 20 21 20 19 19 18 19 20 21 21 22 22 21 20 20 21 21 21 22 23 23 23 23 23 22 22 23 22 22 21 21 22 22 21 21 21 21 20 19 19 19 19 19 19 19 19 18 18 18 18 18 18 18 18
13 14 13 11 11 11 12 14 15 15 16 15 15 15 15 15 16 16 16 16 16 17 17 17 17 17 17 18 18 19 19 19 20 20 19 20 20 19 18 18 18 20 20 21 21 21 20 21 20 20 21 22 22 22 22 22 22 22 23 23 24 23 22 20 20 21 21 21 21 21 21 20 18 18 18 18 18 18 18 19 18 17 16 16 16 17 17 18
14 14 12 11 11 11 13 15 15 15 16 15 15 15 15 15 15 16 16 16 16 17 17 17 17 17 17 17 18 18 18 18 19 19 19 19 19 18 18 18 19 19 20 20 20 20 19 20 20 20 21 22 22 22 21 21 22 22 22 22 22 22 22 21 21 21 21 21 21 20 21 19 16 17 17 17 16 16 16 17 17 16 15 15 15 15 15 15
15 14 13 12 11 12 14 15 15 15 15 15 15 15 15 15 15 15 16 16 16 16 16 17 17 17 17 17 17 18 18 18 18 19 19 19 18 17 18 18 19 19 19 19 19 19 19 20 20 20 20 21 21 21 21 21 21 22 21 21 21 21 22 22 22 22 21 21 21 21 21 19 16 16 17 16 16 15 15 15 15 15 14 14 13 13 13 13
15 14 14 14 13 13 14 15 15 15 14 14 15 14 15 15 15 15 15 16 16 16 16 16 17 17 17 17 17 18 18 17 17 18 18 19 18 18 18 18 19 19 18 17 18 19 19 18 18 19 19 19 19 18 19 20 21 21 20 20 20 20 21 21 21 21 20 21 21 21 20 18 16 16 16 16 16 15 14 14 13 13 13 12 12 12 12 12
15 14 14 14 14 15 14 14 15 15 15 14 14 14 15 15 15 15 15 15 16 16 16 16 17 16 17 17 17 17 18 18 17 18 18 18 18 18 17 17 18 17 17 17 18 19 18 17 17 17 18 18 18 17 17 19 20 20 20 19 19 19 19 20 21 21 20 20 21 21 21 19 17 17 17 16 15 14 13 13 12 12 12 12 11 11 11 12
15 15 14 14 14 14 15 15 15 15 15 14 14 14 14 15 15 15 15 15 16 16 16 16 16 16 16 16 16 16 17 18 17 17 17 18 18 18 18 17 17 16 16 16 17 18 17 17 18 17 17 17 17 17 18 18 19 19 18 18 18 18 19 19 20 19 19 20 20 20 21 20 19 18 17 15 14 13 12 12 11 11 11 11 12 12 12 12
14 15 15 14 14 15 15 15 15 15 15 14 14 14 14 15 15 15 15 16 16 16 16 15 16 16 16 16 16 16 16 17 17 16 16 17 17 17 18 18 17 16 17 17 16 16 16 17 18 18 17 16 16 17 17 18 18 17 17 17 18 18 18 18 18 18 18 19 19 18 18 18 17 16 15 13 13 12 11 11 11 11 11 12 12 13 12 11
14 15 14 14 14 15 14 14 15 15 14 14 14 14 14 15 14 14 15 15 15 16 16 15 15 16 16 16 16 16 15 16 15 15 15 15 15 16 17 17 17 17 17 16 16 16 15 16 17 17 17 16 16 16 17 17 17 16 15 15 16 17 17 17 16 17 18 19 18 17 16 14 13 12 12 12 12 11 11 11 11 11 11 11 12 11 11 10
14 15 14 14 15 14 14 14 14 14 14 14 14 14 14 14 14 14 15 15 14 15 15 15 15 15 15 15 16 15 15 15 15 14 15 15 15 16 16 15 16 16 16 15 15 15 15 15 17 17 17 16 15 16 16 16 16 15 14 13 14 15 16 15 14 15 17 18 18 17 16 13 11 11 11 12 12 11 10 10 10 10 10 10 10 10 10 9
13 13 13 15 15 13 13 14 14 15 15 14 14 14 14 14 14 14 14 15 15 15 15 15 15 15 15 15 15 15 15 15 15 15 15 15 15 15 15 15 16 15 15 14 13 13 14 15 16 17 16 16 15 15 15 15 15 14 13 11 12 13 13 14 13 13 14 15 16 18 17 14 11 11 11 11 11 10 9 9 9 9 9 9 9 9 9 9
12 12 13 15 14 13 14 15 14 15 14 14 14 14 13 14 14 14 14 14 15 15 15 15 14 15 15 15 15 14 14 15 15 15 15 15 15 16 16 16 16 16 16 14 13 13 14 14 14 15 15 15 16 16 14 14 15 14 11 9 9 11 12 13 13 13 12 12 14 16 15 13 11 11 11 10 9 9 8 8 8 8 8 8 8 8 8 8
Height
813 813 812 812 811 810 810 809 808 807 807 806 805 804 804 803 802 801 800 798 797 796 795 794 792 791 790 788 787 786 784 783 783 783 781 777 776 776 775 776 776 778 779 780 783 783 783 784 784 785 784 784 783 781 784 782 780 784 785 786 782 774 770 769 770 771 772 772 771 769 767 770 769 763 757 756 756 758 760 759 758 757 757 757 756 759 763 768
813 812 811 811 810 810 809 808 807 807 806 805 805 804 803 802 801 800 799 798 797 796 795 793 792 791 789 788 787 785 784 783 782 780 777 776 775 774 774 775 776 777 778 780 781 780 780 781 781 782 781 782 782 781 784 782 782 783 781 783 776 769 769 770 771 773 773 774 773 770 767 768 768 764 759 761 761 758 761 761 759 761 761 759 759 762 766 769
812 811 810 810 809 809 809 807 807 806 805 805 804 803 802 801 801 799 799 798 797 795 793 792 791 790 789 787 786 784 784 783 779 776 775 774 773 772 773 773 775 776 778 779 779 779 778 778 780 780 779 781 781 782 783 782 782 779 778 781 772 768 773 772 773 774 774 773 774 771 768 767 764 761 761 763 761 757 759 759 759 763 763 762 760 762 767 769
811 810 810 809 809 809 808 807 806 805 804 804 803 802 801 800 799 798 797 796 795 794 792 791 790 789 788 786 785 784 784 781 774 772 773 773 772 771 772 773 774 776 778 779 779 779 778 778 779 778 779 781 781 782 782 781 780 778 778 778 770 771 775 772 773 773 772 772 773 772 769 767 762 760 761 762 762 757 755 754 755 759 760 761 761 762 767 769
811 810 809 809 808 808 808 806 805 804 803 802 802 800 800 799 797 796 795 795 794 793 791 790 789 787 786 785 784 784 784 778 771 771 772 772 771 770 771 772 774 776 778 779 779 779 779 778 778 779 779 779 781 782 781 778 777 778 777 774 772 775 775 772 772 772 772 771 772 772 770 767 762 761 759 761 765 758 753 752 751 752 754 758 759 761 765 768
811 809 809 808 808 808 807 806 804 803 802 801 800 799 798 797 796 794 793 793 793 792 791 789 788 786 786 784 783 783 781 775 770 771 771 770 770 770 771 773 775 777 779 779 778 779 778 778 779 780 778 778 781 780 778 775 777 780 775 772 774 774 774 772 771 771 771 771 773 771 768 766 766 764 758 759 761 753 749 750 749 748 750 755 757 760 764 766
810 809 808 807 807 806 806 805 804 802 801 799 798 798 797 795 794 792 791 791 791 791 789 788 787 786 785 783 783 781 777 771 769 771 770 770 770 770 772 774 776 778 778 778 777 777 776 778 778 777 777 778 779 777 777 776 776 780 775 773 774 773 774 772 770 771 770 772 771 768 767 768 768 764 759 758 755 748 748 748 748 747 748 753 756 760 764 765
810 809 807 807 806 805 804 803 802 801 799 798 797 796 795 793 792 791 790 789 789 789 789 787 786 785 784 783 781 776 771 769 770 770 769 770 770 771 773 775 777 778 777 776 775 775 775 777 776 775 776 776 776 776 777 777 777 779 776 773 773 773 773 770 770 770 770 770 768 768 770 768 764 762 761 758 751 748 749 748 747 747 749 754 757 760 764 766
810 808 807 806 804 804 802 801 800 799 798 796 795 794 793 791 790 789 788 788 788 788 787 787 786 785 784 783 779 772 767 769 770 770 769 770 770 772 773 775 777 777 777 776 775 775 775 775 774 773 775 774 775 775 776 778 776 775 774 772 773 773 771 770 770 770 769 768 767 770 770 765 760 762 761 753 750 750 749 749 748 749 752 754 757 760 763 767
809 807 806 804 803 802 801 800 799 797 796 795 793 792 791 790 789 788 787 786 786 786 786 786 785 784 784 783 778 771 767 769 770 769 769 770 771 772 774 775 776 776 776 776 776 775 773 773 772 773 774 774 775 775 775 777 773 771 773 773 773 773 771 771 771 769 769 767 767 770 770 764 759 764 763 752 751 751 750 751 750 750 753 755 757 760 764 768
808 807 805 803 802 800 799 798 797 796 795 793 792 790 789 788 787 787 786 785 785 785 785 785 784 784 784 782 776 769 767 769 770 769 770 770 772 773 774 775 776 776 775 776 776 775 774 774 772 774 775 774 775 775 774 773 771 772 774 775 774 772 771 770 770 769 768 766 764 765 768 764 761 764 760 752 751 751 752 753 752 752 753 755 758 761 765 770
807 806 804 802 801 799 798 797 795 795 793 792 790 789 788 787 786 785 784 783 783 784 784 784 784 784 784 780 773 767 767 769 770 770 770 771 773 774 774 775 776 776 775 775 775 775 776 775 774 775 774 772 774 777 774 770 772 773 774 777 773 770 770 768 767 767 767 767 761 764 770 766 762 760 753 750 751 751 753 753 753 753 753 756 758 761 767 773
807 805 803 802 800 798 797 795 794 793 792 791 789 788 786 785 784 783 782 782 782 782 783 784 784 785 784 775 766 766 767 769 769 770 771 772 773 774 775 776 776 776 776 775 775 776 777 777 776 775 773 772 773 775 772 770 774 774 773 776 773 771 769 763 765 766 766 767 761 767 776 764 755 753 748 750 752 752 754 753 753 753 753 756 758 762 769 774
805 804 802 801 799 797 796 794 793 792 791 790 788 786 785 783 782 781 780 780 780 781 782 783 784 785 783 771 764 766 766 768 769 770 771 771 772 773 774 775 776 777 777 776 777 777 778 777 777 775 774 772 770 772 773 773 775 773 773 774 773 773 768 762 765 766 765 765 760 767 776 761 749 749 749 751 752 753 755 752 751 751 753 755 757 764 769 770
804 803 801 800 798 796 795 793 792 791 790 788 787 785 783 782 781 780 779 779 779 780 781 783 784 784 778 767 763 765 765 767 768 768 770 770 771 772 773 775 776 777 777 777 777 778 778 778 778 776 774 772 772 775 774 773 772 772 777 775 770 771 767 763 764 764 765 764 759 765 771 759 747 748 750 751 751 753 754 752 751 751 753 755 759 766 768 768
803 802 800 799 797 795 794 792 791 789 788 787 786 783 782 781 780 780 779 778 779 779 782 784 783 783 775 764 763 764 764 765 765 766 768 769 770 770 771 774 775 777 777 777 778 778 778 777 776 774 773 774 775 774 773 775 773 771 775 772 768 770 767 764 764 762 764 764 761 764 767 757 748 748 750 750 751 753 753 752 751 751 753 755 760 765 766 767
801 800 799 798 796 794 793 791 790 788 787 786 784 782 781 781 780 779 779 779 780 780 783 782 781 782 772 762 763 762 761 763 764 765 766 768 769 770 771 772 774 775 776 777 778 777 777 776 777 776 774 774 771 771 778 782 776 770 772 772 768 769 768 767 765 763 763 765 765 764 765 760 751 748 748 749 750 752 753 752 751 751 753 755 759 764 765 766
800 799 798 797 795 794 792 791 789 787 786 785 783 781 780 780 780 780 780 780 781 782 782 781 781 778 767 761 761 759 759 762 763 764 766 767 768 769 770 770 771 774 774 776 776 776 777 775 776 776 776 776 772 774 780 777 769 768 771 772 769 768 770 769 766 763 764 766 766 765 765 760 752 747 746 747 749 751 751 750 750 749 751 754 758 763 763 764
799 798 797 796 794 793 791 790 788 786 785 783 782 782 780 780 780 780 781 780 778 775 772 773 773 767 762 761 759 758 759 761 762 763 764 765 767 769 769 769 770 771 773 775 775 775 775 776 779 779 776 776 773 770 769 767 767 768 768 770 769 769 768 766 766 763 763 768 768 765 764 758 752 748 745 745 747 750 750 749 749 749 749 752 756 760 762 763
798 797 796 794 793 792 790 789 787 786 785 783 783 782 779 777 774 774 777 776 771 765 762 764 763 759 760 759 757 759 759 760 760 760 763 764 765 766 767 768 769 770 771 772 774 773 773 778 780 776 770 767 767 766 764 766 770 771 770 770 769 769 765 763 767 764 762 771 768 761 761 758 753 749 744 743 747 750 750 749 749 748 749 751 753 757 760 762
797 796 794 793 792 791 790 788 786 785 784 783 784 781 776 773 771 772 773 768 762 761 761 760 759 759 759 759 759 759 759 759 758 758 762 763 762 765 766 767 770 772 769 767 772 774 775 779 774 765 763 762 764 767 770 773 775 774 773 771 768 766 762 762 768 764 762 771 767 758 761 759 753 749 744 742 747 750 748 748 748 746 747 748 750 754 756 758
796 794 793 792 791 790 789 787 785 784 783 783 783 779 775 776 777 778 776 768 759 758 759 758 759 759 758 759 760 761 762 761 759 757 760 761 761 762 763 765 769 768 766 768 774 778 781 777 766 760 763 766 768 770 773 776 776 775 773 772 770 763 761 763 766 764 763 769 766 758 762 760 751 747 743 741 743 745 743 743 743 743 744 745 746 750 752 755
794 792 792 791 789 789 787 786 784 783 783 783 782 779 778 779 779 779 779 773 761 755 756 757 758 757 756 757 758 761 762 760 758 755 756 760 759 758 761 764 765 764 767 771 772 777 779 770 760 760 766 770 773 773 775 777 776 775 773 773 770 762 766 771 766 764 764 765 765 762 764 760 751 746 742 739 739 739 738 739 739 739 741 742 742 746 750 752
793 792 791 789 789 788 785 784 783 782 783 782 781 780 779 780 779 779 778 770 760 754 754 755 755 754 754 755 756 758 758 755 754 752 752 757 757 757 759 759 761 764 766 766 767 769 767 761 758 763 767 770 774 776 777 778 775 772 770 771 768 763 768 770 763 763 763 762 763 766 770 760 746 745 741 735 736 737 736 738 740 740 739 739 740 742 745 747
792 791 790 789 788 786 784 784 782 782 782 780 780 780 779 780 778 780 777 767 759 754 753 754 754 753 752 754 755 754 754 753 751 749 749 752 753 755 756 755 758 763 763 762 766 766 762 760 762 766 768 768 772 774 774 776 774 769 767 767 767 765 766 765 763 768 771 765 759 764 775 761 737 739 740 732 735 737 736 738 739 738 737 738 739 740 742 744
791 790 789 788 787 784 783 782 781 782 780 778 779 779 779 780 778 780 777 765 755 750 751 753 752 752 751 753 753 752 755 753 748 748 749 750 750 751 756 756 756 759 757 758 765 764 760 760 763 766 769 769 771 772 769 771 775 771 762 760 764 763 764 765 766 772 773 766 758 760 772 765 742 737 737 733 735 735 734 738 738 736 736 736 736 737 739 741
790 789 788 787 786 784 782 781 782 781 778 778 779 778 779 778 777 780 775 767 757 748 749 751 750 751 750 750 751 752 756 751 746 748 748 750 749 749 756 756 757 759 754 760 770 764 759 764 766 767 770 771 772 771 765 767 774 770 759 759 763 762 764 766 767 770 764 759 760 757 761 768 756 740 732 733 737 735 734 738 739 738 738 736 736 735 736 739
789 788 787 786 785 785 783 782 782 780 777 778 778 779 779 777 778 778 773 771 760 746 746 748 748 749 748 749 750 749 750 747 748 750 746 749 749 750 756 753 754 757 754 763 771 760 756 765 767 767 771 771 768 764 760 765 772 764 757 761 762 762 764 762 763 766 761 764 769 755 754 770 761 737 730 735 738 735 734 739 742 742 741 740 738 736 735 738
788 787 786 785 784 783 783 783 781 779 778 778 778 778 776 777 778 772 770 770 756 745 747 747 748 749 747 749 750 748 747 745 747 749 746 749 749 749 754 749 747 753 755 758 760 755 756 760 759 762 767 766 761 757 755 762 767 760 759 763 762 762 762 762 763 761 763 777 773 752 752 768 760 736 730 736 738 737 737 740 743 743 742 741 740 738 737 737
786 785 785 784 783 782 782 781 779 778 778 777 777 777 776 777 774 770 774 769 753 747 747 745 747 747 745 747 748 747 748 745 744 747 748 749 749 748 749 746 746 751 756 757 755 754 756 757 757 758 759 757 754 754 755 759 761 759 761 762 762 762 760 762 761 758 770 781 766 748 750 763 764 741 728 736 743 743 742 743 744 744 743 742 742 741 738 738
784 783 783 783 783 783 782 779 776 776 777 777 777 776 776 773 767 769 772 761 750 748 746 746 747 744 744 746 745 745 747 745 743 747 750 749 751 752 751 752 753 755 761 761 757 754 757 760 759 755 753 753 755 757 758 758 758 762 763 761 764 766 765 767 765 768 781 778 758 748 747 759 768 747 729 738 744 742 743 745 747 748 745 742 742 741 740 741
782 781 781 781 781 781 779 776 775 776 776 776 777 774 772 772 769 767 760 753 755 753 748 750 748 744 746 745 744 743 743 745 743 744 747 748 750 751 749 751 754 761 767 763 759 758 758 757 753 751 750 752 758 759 761 762 762 765 764 764 771 773 775 779 775 774 777 767 755 750 751 760 759 741 733 742 744 741 743 745 746 747 745 743 741 741 742 743
779 778 778 778 778 778 776 775 776 776 775 776 776 770 768 772 770 762 753 751 758 756 751 754 749 744 746 743 743 741 740 743 742 741 741 742 747 748 745 743 743 752 760 757 759 763 760 753 748 751 751 750 755 758 762 764 763 765 764 765 771 774 783 788 777 771 769 761 754 751 756 761 750 738 739 742 743 743 742 743 745 746 745 743 741 741 744 744
776 775 774 774 774 774 774 774 775 774 775 776 772 769 772 773 765 760 756 753 755 754 752 753 750 745 744 742 742 740 740 743 740 740 741 742 747 748 745 744 741 743 749 755 759 759 763 761 750 749 748 745 750 752 751 751 754 757 752 752 761 763 773 781 772 767 765 760 758 758 762 760 751 747 743 739 741 741 740 743 746 747 746 744 743 744 746 746
773 772 771 771 771 771 771 773 773 774 775 773 768 768 772 769 759 757 759 755 755 756 751 750 749 746 742 741 741 738 740 744 741 740 741 742 745 745 743 745 742 741 747 757 759 753 759 758 742 740 742 740 745 744 741 746 752 749 743 750 758 750 752 765 768 767 766 764 763 762 757 744 738 744 739 737 742 742 745 749 750 753 750 748 749 748 749 752
771 771 770 770 770 769 769 771 772 773 773 769 767 767 765 761 757 757 759 759 760 759 753 749 748 746 743 741 742 739 739 742 741 741 740 738 739 739 738 739 739 740 743 750 755 754 759 755 739 740 744 739 740 739 737 746 752 750 751 754 748 737 741 759 770 768 770 774 764 755 753 738 732 743 741 739 746 748 752 756 757 758 755 754 756 754 753 755
771 770 769 769 769 768 768 769 771 773 771 765 765 766 761 760 761 759 761 762 761 760 757 752 750 750 748 744 743 742 740 741 741 741 741 741 741 739 738 736 736 738 738 741 749 749 754 755 742 739 745 740 738 740 738 739 743 750 755 747 737 739 744 752 766 770 770 775 763 751 755 746 740 750 749 745 754 757 757 760 761 760 759 760 760 758 758 757
771 769 768 768 769 768 768 770 771 771 768 764 766 768 764 762 763 762 762 763 762 761 758 755 753 753 751 748 746 743 742 744 743 742 741 743 745 743 740 739 738 738 735 738 747 746 749 757 747 736 742 741 737 744 747 741 738 743 747 739 739 755 758 753 764 771 771 775 765 753 754 746 741 753 756 754 759 761 761 763 763 762 762 763 761 760 760 759
771 767 766 768 769 768 768 770 771 768 766 764 764 766 765 763 763 763 763 763 763 762 758 756 756 754 752 750 748 745 745 745 743 742 742 743 747 748 744 742 741 741 739 739 745 745 746 758 754 738 737 741 740 745 749 746 742 742 744 740 739 750 755 752 753 756 762 770 767 760 754 747 747 755 757 756 756 758 762 764 764 763 762 761 761 760 760 760
769 763 764 768 769 768 770 770 768 764 763 763 761 763 764 764 763 762 762 763 762 760 759 758 757 757 755 751 749 748 746 745 742 743 743 740 747 753 748 745 745 743 742 742 743 743 746 757 758 743 736 742 745 742 741 742 742 744 749 749 745 744 745 749 747 742 748 759 762 763 760 754 757 761 757 756 756 757 760 762 764 764 761 760 761 762 762 762
766 761 764 769 768 769 770 768 765 762 761 763 763 764 765 765 763 762 762 763 762 759 759 760 758 758 757 754 751 750 748 745 742 744 744 740 745 752 750 750 750 745 745 745 744 745 748 755 756 748 743 745 743 737 736 738 737 740 744 742 742 742 744 757 759 743 740 748 752 757 761 760 763 763 761 761 759 758 758 760 764 765 764 764 764 764 764 763
763 762 765 768 768 769 768 764 763 762 760 762 764 764 766 766 765 763 762 763 762 760 760 760 759 758 758 756 754 752 750 748 744 746 747 743 745 751 751 751 750 746 746 746 744 744 747 751 753 751 745 741 739 737 739 741 739 740 741 736 736 738 742 759 765 749 742 744 745 750 756 762 767 766 765 766 764 763 762 761 766 770 771 770 769 768 767 765
760 762 767 768 768 768 765 762 763 763 762 764 765 765 767 767 765 764 763 762 762 761 761 760 759 759 759 758 757 754 753 752 748 747 748 746 749 753 751 749 749 747 745 746 747 749 752 753 754 752 744 737 738 739 740 742 741 742 742 741 742 741 739 746 748 745 746 746 748 755 757 763 773 769 766 769 769 771 769 767 770 773 774 774 774 774 773 771
758 762 766 767 768 767 764 761 762 763 765 766 766 766 767 767 766 765 763 763 762 762 763 761 759 760 759 759 759 756 755 756 753 749 749 749 752 754 752 750 748 748 750 752 751 752 755 755 754 757 756 750 749 749 748 746 743 743 746 748 749 745 741 743 741 743 750 747 746 753 757 767 776 771 769 772 772 775 776 775 776 777 778 780 780 780 779 777
758 762 764 765 767 766 764 763 762 764 766 768 767 768 767 767 767 766 765 764 763 762 763 761 760 761 759 758 759 756 755 758 757 753 751 751 752 753 754 752 750 751 754 755 751 750 755 760 760 762 763 761 764 766 764 756 745 745 750 753 754 751 749 750 746 748 754 748 742 746 754 769 777 771 770 773 773 777 780 782 783 784 784 785 785 785 784 781
757 762 765 766 766 764 764 765 763 763 765 768 769 769 767 766 767 767 766 765 764 763 763 762 760 761 760 759 760 758 755 756 756 755 754 753 752 754 755 755 755 756 757 757 753 751 756 762 763 764 762 762 767 769 766 758 750 751 755 755 757 757 755 753 750 752 754 750 746 743 744 761 773 771 770 774 777 781 785 786 789 789 789 789 788 788 786 784
756 758 762 765 765 764 764 764 763 763 765 767 769 769 768 767 766 766 766 765 764 764 764 762 761 763 764 763 763 762 759 756 756 758 759 756 753 753 755 756 759 761 760 758 755 756 762 762 759 762 764 763 766 765 761 759 758 759 761 761 760 759 757 756 757 759 758 755 756 753 748 755 764 767 771 778 782 786 789 791 793 793 793 792 789 788 787 787
757 758 759 761 762 761 763 763 764 765 766 767 769 770 769 767 767 768 766 764 764 764 764 765 765 764 765 765 764 764 762 760 761 763 762 760 758 756 755 756 760 762 760 759 759 765 771 767 758 760 765 766 768 767 764 764 765 766 768 768 765 762 761 763 765 765 762 761 764 765 764 765 769 774 780 784 787 791 794 796 796 795 795 793 790 789 789 791
758 758 760 762 761 761 764 766 765 766 768 768 769 770 769 768 768 769 766 765 765 764 765 769 768 765 765 765 764 765 766 765 768 769 767 767 767 764 760 759 759 758 758 761 764 768 773 771 763 760 764 768 771 770 768 768 770 774 778 776 771 768 769 771 772 770 764 761 763 767 776 784 788 790 791 791 792 794 796 797 797 797 797 796 794 794 794 795
757 758 761 762 762 764 767 767 766 766 769 770 770 771 771 769 770 769 767 768 769 768 766 769 769 767 767 766 764 767 769 769 771 773 771 771 770 767 767 767 765 763 764 767 770 771 773 773 766 761 765 771 773 773 771 770 773 780 787 788 782 778 776 778 782 779 769 765 766 768 777 790 796 796 795 794 795 796 799 801 801 802 802 800 800 800 800 800
760 760 760 759 762 768 768 766 766 764 766 768 769 771 771 770 771 771 769 768 769 769 768 769 769 768 767 768 767 768 770 770 771 771 771 771 770 768 769 769 767 768 769 773 777 776 775 776 772 766 769 773 773 775 777 778 778 782 791 800 797 790 788 787 788 788 783 779 775 769 772 787 798 800 800 799 799 802 804 805 806 807 806 806 805 805 804 804
762 762 760 757 763 770 767 765 765 764 766 769 771 772 772 772 771 771 772 771 768 768 769 770 770 768 766 768 770 771 771 771 771 769 769 770 769 768 769 767 765 766 767 772 778 777 777 781 780 777 777 774 770 772 779 781 779 785 800 812 810 803 798 793 789 792 795 792 785 777 779 791 797 798 802 805 806 808 810 811 811 811 811 810 809 809 809 808
Wind_Speed
7 7 8 8 7 7 7 7 8 8 8 8 8 8 8 8 8 8 8 8 8 9 9 9 9 10 10 10 11 13 14 14 12 9 8 4 2 5 5 5 11 16 18 18 17 16 14 12 12 12 10 8 6 5 8 6 5 5 5 6 6 6 3 2 0 2 3 3 6 8 8 9 9 8 8 5 3 1 2 4 4 4 2 3 5 14 22 23
8 8 8 8 8 8 8 8 7 7 7 7 8 8 8 8 8 8 9 9 9 9 9 9 9 9 10 10 10 12 14 12 12 10 8 3 6 4 5 8 12 19 21 18 19 18 15 13 13 13 9 6 5 6 8 6 6 7 5 6 7 2 3 4 3 4 4 6 8 8 8 9 9 8 8 7 4 2 4 6 6 6 5 4 7 14 20 22
8 8 8 8 8 8 8 8 8 8 8 8 8 8 8 8 8 8 9 9 9 10 10 10 10 9 9 10 10 11 11 11 9 5 4 3 9 6 7 11 15 22 20 15 17 16 12 12 14 13 8 5 5 6 8 7 7 7 5 7 4 1 3 2 1 2 4 7 8 9 9 9 7 7 7 9 9 4 4 5 6 8 7 8 9 14 19 20
8 8 8 8 8 8 8 8 8 8 9 9 9 9 8 8 8 9 9 9 10 10 10 10 10 9 8 8 9 9 9 10 3 6 2 6 10 5 10 14 17 22 15 10 13 11 8 11 13 11 7 6 5 6 8 7 6 5 6 7 1 2 2 2 1 3 5 7 8 9 10 9 7 7 8 9 9 2 3 1 3 6 9 11 11 14 18 18
9 9 9 9 9 9 9 9 9 9 9 10 10 9 9 9 8 9 9 9 10 11 11 11 11 9 8 7 7 6 7 5 3 5 3 8 7 2 12 16 20 20 12 9 11 9 9 11 11 9 6 5 6 7 8 9 6 4 7 8 1 1 3 1 1 4 6 7 8 9 10 9 9 9 8 8 8 3 4 2 2 4 8 12 13 14 16 16
9 9 9 9 9 9 10 10 9 9 10 10 10 10 10 9 9 9 9 9 10 11 11 11 11 9 6 6 5 5 6 2 3 2 8 8 2 6 13 19 20 16 11 12 12 10 11 11 10 8 6 5 8 8 6 9 8 6 7 7 5 6 6 4 5 7 7 9 8 9 9 9 11 10 7 8 9 6 4 3 3 3 7 12 13 14 15 17
9 9 9 9 9 9 10 10 10 10 10 10 10 11 11 10 10 10 9 10 10 11 11 11 11 9 6 5 3 6 8 3 3 4 9 4 5 10 15 20 18 13 12 13 12 11 10 11 10 7 6 6 8 8 6 9 10 9 6 5 7 7 8 8 8 8 8 10 9 10 10 10 12 10 8 10 10 7 5 4 5 4 8 12 13 14 15 16
10 9 9 9 9 10 10 11 11 11 11 10 11 11 11 11 11 10 10 10 10 11 12 11 10 8 6 4 5 6 6 1 4 5 7 3 9 12 18 20 15 11 12 12 11 10 9 11 9 6 7 5 6 8 7 9 10 11 9 4 6 6 7 8 8 9 9 9 8 9 11 10 10 9 11 13 8 4 4 4 5 6 9 12 12 13 14 14
10 10 10 10 10 10 10 11 12 12 11 11 11 12 12 12 12 11 11 11 11 11 12 11 9 7 5 4 7 6 1 5 4 4 0 8 11 15 19 17 13 10 10 9 7 9 8 8 8 5 5 3 5 8 9 9 7 8 11 7 7 8 7 8 9 10 9 7 7 10 12 10 7 7 9 8 3 2 2 4 5 7 10 11 11 12 13 12
11 11 10 10 10 10 11 11 12 12 12 13 12 12 13 12 12 12 11 11 11 12 11 11 8 5 4 5 7 4 4 5 3 4 6 12 15 18 16 14 14 9 8 7 6 8 6 4 5 3 4 2 6 6 9 8 1 2 7 7 8 9 7 8 9 9 9 8 9 11 12 9 5 6 6 2 4 1 2 4 6 8 9 9 9 10 11 11
12 12 11 11 11 11 11 12 12 12 13 14 13 13 13 13 13 13 12 12 12 12 11 10 5 3 5 6 7 3 5 5 3 6 8 15 17 14 11 12 13 8 6 6 6 7 4 2 4 4 2 3 6 6 8 7 2 2 5 6 9 9 7 9 9 8 8 8 9 9 11 9 7 9 8 1 3 1 3 5 6 7 7 8 9 9 9 8
12 12 12 11 12 12 12 12 13 13 13 14 14 14 14 14 14 14 14 13 12 11 10 8 3 2 6 7 6 2 4 5 5 6 9 14 14 9 8 10 9 6 4 4 5 6 4 3 7 7 1 3 6 5 6 6 4 5 6 7 8 8 9 10 8 7 7 7 5 6 10 10 10 12 7 2 1 2 4 6 6 7 6 8 8 8 8 6
13 12 12 12 12 12 12 13 13 14 14 14 15 15 15 15 15 15 14 13 11 9 8 4 2 3 6 5 2 2 4 5 6 8 10 12 11 8 6 7 7 5 2 1 2 4 5 3 7 7 1 4 5 3 2 5 5 6 6 7 6 7 7 6 4 5 6 4 3 6 8 7 11 12 3 4 1 4 6 7 6 6 6 7 8 8 8 8
13 13 13 13 12 12 12 13 14 14 15 15 15 15 16 15 14 13 12 11 9 7 5 2 2 4 6 4 2 4 7 6 6 9 11 11 10 7 6 6 7 5 2 1 3 2 4 4 6 5 2 5 1 3 4 5 6 5 5 5 5 6 3 7 3 4 4 2 3 8 7 5 7 8 4 4 2 4 6 7 7 7 6 6 7 9 9 11
13 13 13 13 13 13 13 13 14 15 15 16 16 17 16 12 10 9 8 7 5 4 4 3 4 5 5 5 2 3 7 7 8 11 12 11 10 7 7 8 7 6 4 3 3 2 4 6 6 5 5 3 1 5 7 5 6 5 5 5 5 5 3 7 5 2 1 3 4 8 6 7 6 6 5 2 2 4 6 7 7 8 6 5 6 9 9 10
13 13 13 13 13 13 13 14 14 16 16 16 17 16 12 6 6 6 3 1 2 6 7 4 6 6 6 2 4 2 6 7 5 9 12 13 11 7 8 9 7 7 5 4 3 2 5 8 5 3 4 5 5 6 5 5 6 5 6 5 4 4 3 4 6 4 2 1 4 6 6 6 4 5 4 1 2 4 6 7 8 8 6 6 7 8 8 9
14 13 13 13 13 13 14 14 15 16 16 17 17 12 5 2 3 3 4 5 5 6 6 4 3 6 5 1 3 3 6 6 4 6 8 10 11 9 10 9 8 8 7 6 4 3 7 8 3 2 4 5 6 5 5 7 6 6 6 5 4 5 4 2 5 6 2 3 4 5 6 8 6 3 3 2 3 5 6 7 7 7 6 6 7 9 9 10
14 14 14 14 14 14 14 15 15 16 17 17 13 6 3 2 1 2 4 4 4 5 5 3 3 6 3 3 2 3 8 6 4 5 5 8 10 11 11 8 9 11 9 7 6 6 7 6 4 5 6 6 6 6 7 4 3 5 5 5 5 5 6 4 2 3 1 5 6 6 8 10 11 9 6 4 4 6 7 6 6 7 7 7 8 9 10 10
14 14 14 14 14 15 14 15 15 15 17 15 8 3 3 2 1 2 3 4 4 4 2 3 5 4 1 3 2 4 4 2 2 4 7 9 12 12 10 8 11 11 8 7 7 7 5 5 5 6 7 9 9 10 9 2 3 3 2 4 4 4 5 4 2 1 3 6 7 9 10 10 12 11 8 6 5 7 7 6 6 7 7 7 8 9 10 11
14 15 15 14 14 15 15 15 15 15 16 12 6 4 4 2 3 4 4 5 7 8 9 5 8 8 4 1 1 1 3 3 3 5 9 11 14 13 10 10 10 9 7 6 7 7 6 6 7 8 9 11 12 11 8 3 2 4 4 5 5 6 5 2 2 3 3 6 8 9 11 12 13 13 12 7 6 8 9 9 9 8 8 7 9 10 12 12
14 15 15 14 15 15 15 15 15 15 13 7 5 6 2 4 3 1 2 6 9 10 12 10 10 11 7 3 0 1 1 5 5 5 9 12 15 13 11 11 10 8 8 6 6 5 5 7 9 10 8 7 9 9 5 3 4 6 7 7 6 7 5 2 2 4 2 4 7 7 9 11 13 14 14 10 8 10 11 10 11 10 9 8 10 12 13 12
15 15 15 15 15 15 15 15 15 15 9 3 5 6 2 6 4 3 4 6 7 8 11 10 9 9 9 9 6 1 3 5 6 7 10 12 14 12 10 12 11 8 8 7 5 5 7 9 11 8 4 4 5 7 6 6 7 7 6 7 7 5 3 2 3 3 3 3 6 6 7 9 12 15 15 12 11 10 12 12 11 11 11 10 11 12 13 13
15 15 15 15 15 16 15 15 15 12 3 2 6 5 2 4 3 2 4 6 6 5 6 7 7 8 8 10 9 8 8 9 9 10 13 13 12 10 10 13 12 8 9 10 8 6 6 7 9 7 5 6 7 7 8 7 6 7 6 6 6 3 2 2 4 5 3 5 8 9 8 9 12 14 14 14 13 12 12 11 10 10 10 11 11 11 13 15
15 15 15 15 16 16 15 14 12 5 1 5 8 4 1 3 4 3 4 6 5 2 2 3 4 5 3 2 7 13 11 10 9 9 15 14 10 8 10 13 12 9 9 12 12 10 5 1 3 7 9 9 9 8 9 7 6 8 8 8 7 5 5 6 4 3 6 8 9 9 8 8 11 13 13 12 12 13 12 9 9 10 10 11 11 13 14 15
15 14 15 15 16 16 14 10 3 1 5 8 5 3 1 4 4 3 4 5 3 3 3 4 3 2 2 2 7 10 7 8 9 7 14 16 11 8 9 9 9 9 11 13 11 10 6 5 5 8 10 11 10 8 9 8 7 7 9 10 10 10 10 10 8 5 7 7 8 7 7 6 7 9 10 8 9 12 10 9 11 11 11 12 12 13 14 15
14 14 15 14 16 16 10 3 1 4 8 4 4 3 2 6 5 3 4 4 3 4 4 5 3 3 4 4 7 6 5 7 7 7 12 15 13 8 7 7 6 8 9 10 7 6 4 6 7 9 9 11 10 8 9 9 8 6 4 6 9 10 9 8 6 5 6 4 5 5 7 5 4 6 8 7 8 11 9 8 8 8 8 11 11 12 13 14
14 14 14 13 14 14 7 2 4 7 6 3 4 2 5 8 4 3 4 4 3 2 2 3 2 2 1 3 7 6 3 4 6 9 10 13 13 8 7 8 7 6 4 5 4 4 6 8 8 8 8 9 8 7 8 9 9 4 4 2 6 5 5 5 6 7 5 4 3 8 7 6 7 6 7 7 8 11 10 6 3 3 5 7 9 11 13 14
14 14 14 12 12 11 6 6 8 6 2 3 2 4 7 6 3 4 5 3 2 1 1 2 3 2 1 3 8 6 1 2 4 8 9 12 12 8 9 11 10 9 8 7 4 4 8 11 10 11 10 7 7 7 6 9 9 3 4 1 4 3 5 4 5 6 4 4 5 9 8 7 8 5 6 7 10 12 8 3 2 2 3 5 7 9 12 13
14 14 13 13 13 9 5 8 8 5 1 0 3 6 7 3 4 4 5 3 2 1 1 2 3 3 2 3 8 8 4 3 1 5 9 11 10 6 7 9 10 10 11 10 7 3 5 5 7 11 10 7 9 10 8 10 8 2 2 4 4 3 4 4 5 5 3 4 8 8 8 7 7 6 7 8 8 7 2 3 4 5 4 3 4 6 9 11
14 14 12 13 11 6 4 8 11 8 4 3 4 6 4 4 4 5 4 2 1 3 2 2 3 1 2 3 7 8 8 4 2 6 9 10 10 7 3 4 7 7 8 10 9 2 6 2 2 7 8 6 7 7 6 9 7 1 3 7 6 5 4 4 5 4 4 7 10 8 8 7 7 7 5 2 1 2 3 3 5 7 6 2 2 4 6 7
15 14 12 11 8 4 4 4 4 5 4 3 5 4 5 4 3 5 3 1 1 2 3 2 1 2 4 3 3 6 8 6 5 9 9 8 10 9 5 4 6 6 6 8 9 6 7 5 4 6 7 5 4 3 4 7 7 4 6 7 5 5 4 4 5 4 6 8 5 3 6 7 8 7 2 3 3 4 5 5 7 7 6 2 2 3 4 5
16 15 14 12 10 9 9 3 1 2 3 5 5 4 5 4 4 4 2 1 1 1 2 1 2 4 4 3 2 4 6 7 8 9 9 10 10 9 10 8 7 8 7 7 8 7 7 8 8 8 8 7 7 5 6 5 6 7 7 6 7 6 5 6 7 6 8 6 3 3 4 6 9 6 2 5 3 5 6 6 7 7 4 1 3 4 5 5
18 18 17 14 12 14 13 8 6 8 7 6 4 5 5 4 3 2 1 1 1 3 3 3 5 6 5 4 2 3 5 6 9 9 9 11 10 10 12 10 10 10 6 6 8 6 7 9 11 10 8 9 10 7 6 7 8 9 8 7 8 7 6 7 7 7 8 4 4 3 3 6 9 2 7 7 6 7 6 6 7 6 4 2 3 5 5 6
20 18 15 11 11 15 13 9 9 7 5 5 5 5 5 5 1 1 1 1 3 3 2 4 6 5 4 2 2 1 4 5 9 8 8 10 9 9 10 10 12 10 4 5 6 6 7 6 9 11 7 10 13 11 8 6 7 10 9 8 8 7 6 7 5 6 7 3 3 4 4 6 6 1 6 5 6 6 6 7 8 7 6 4 4 5 6 5
18 12 9 8 9 10 11 11 9 5 4 5 6 5 6 4 1 1 1 1 3 3 3 3 5 5 4 3 2 0 1 2 7 8 7 9 8 8 9 9 12 11 6 6 4 4 8 5 6 8 4 8 14 13 11 8 6 7 7 7 7 7 6 4 2 2 4 3 3 4 4 5 1 4 4 4 6 8 8 10 9 7 7 6 6 6 7 7
12 6 4 4 4 4 7 12 11 7 5 5 6 6 4 1 1 1 1 2 2 4 6 4 3 4 3 4 2 2 1 2 7 8 6 7 7 7 8 8 11 12 9 6 4 4 7 3 6 8 5 7 9 9 12 10 5 4 6 7 5 5 6 5 1 2 1 6 4 3 5 6 3 4 4 5 6 8 8 9 8 7 8 7 7 6 6 7
8 5 1 3 2 1 5 11 12 8 6 6 6 4 1 1 2 2 2 2 1 4 7 3 1 2 2 3 2 3 2 4 7 7 6 6 4 4 7 6 8 13 12 8 4 4 5 3 6 8 8 8 4 4 9 10 7 5 5 5 3 2 5 6 4 4 5 7 4 4 6 7 5 2 4 4 5 7 8 8 8 7 8 8 7 7 7 7
8 5 2 4 2 3 8 12 11 7 5 5 5 1 0 1 1 1 2 3 2 2 5 3 1 2 2 1 1 2 1 4 7 7 6 7 3 0 4 5 6 9 11 9 6 3 4 5 6 6 5 7 6 5 7 8 10 7 4 3 3 4 6 6 6 6 6 7 5 4 6 6 5 1 5 4 4 7 7 7 7 7 7 6 6 7 7 7
6 4 3 4 2 6 10 10 8 5 5 6 4 2 1 2 2 1 1 1 2 3 3 1 0 1 1 2 1 2 2 2 5 6 5 6 4 0 2 2 4 5 6 8 7 4 4 6 4 5 4 5 7 7 7 8 10 9 6 5 5 4 4 4 4 5 6 7 6 5 5 2 1 2 4 4 4 6 6 6 6 6 6 5 5 5 5 5
5 4 3 4 2 9 8 6 6 5 4 3 2 2 2 1 3 3 1 2 3 3 2 1 1 1 1 2 2 1 2 2 2 4 4 4 5 2 1 1 1 1 3 7 8 5 4 5 4 5 7 6 6 5 6 5 7 8 7 8 7 4 3 4 4 5 5 6 5 5 5 0 4 4 3 4 4 4 5 5 5 4 4 4 5 4 4 3
4 4 3 3 4 8 5 5 4 3 3 2 1 3 2 0 1 2 2 2 3 2 2 4 3 3 3 2 1 2 3 3 1 2 3 4 4 2 2 2 3 1 2 6 8 6 4 5 6 5 6 7 4 3 1 2 2 5 6 8 8 7 5 6 7 6 5 6 5 5 5 1 4 3 3 3 2 3 4 5 5 5 4 5 5 4 3 3
4 3 4 4 5 4 5 3 2 1 2 2 1 2 1 1 1 1 2 2 4 3 2 4 4 3 3 2 2 3 3 3 1 1 2 1 2 2 4 4 4 3 3 4 3 1 1 3 6 7 6 4 4 8 4 1 1 3 5 6 6 7 6 7 7 5 5 6 4 6 6 1 4 2 2 2 4 5 4 4 5 6 6 6 6 6 5 5
4 3 4 5 3 2 5 3 3 2 1 3 1 1 1 1 1 1 2 3 3 3 3 3 3 2 1 2 4 4 3 2 1 0 1 1 5 5 7 5 2 4 3 3 2 2 1 4 6 7 6 3 5 6 3 2 3 5 3 2 4 6 6 6 6 3 4 6 4 6 6 1 3 2 3 4 5 7 6 6 6 5 5 6 7 8 7 7
4 4 5 5 1 4 4 2 2 2 3 3 2 3 2 1 1 1 1 1 1 1 3 3 1 2 1 2 4 5 4 2 1 2 1 1 3 5 7 6 2 0 1 1 1 3 3 5 6 6 7 7 6 6 6 5 5 3 1 1 2 5 5 5 5 4 6 7 7 7 4 2 3 3 5 6 6 7 7 7 6 6 6 6 7 7 7 8
4 3 4 4 3 3 1 1 1 2 4 3 3 3 3 3 1 2 1 1 1 1 2 1 1 2 3 2 4 3 2 2 1 1 1 1 3 4 6 7 6 5 5 5 2 3 3 1 3 6 7 7 6 4 4 4 4 2 3 2 3 3 4 4 5 6 7 7 8 8 3 3 4 5 6 5 5 7 7 7 7 7 7 6 7 6 6 7
4 3 3 4 3 2 1 1 1 1 3 3 3 3 1 3 4 1 1 0 2 1 1 1 1 3 3 3 4 3 1 1 2 1 1 1 2 4 5 5 7 9 9 9 5 2 3 2 4 6 7 5 1 2 3 3 2 2 3 3 4 4 3 4 5 5 4 4 6 5 2 7 7 6 6 5 5 6 6 7 7 7 7 7 7 6 6 7
3 3 3 3 3 2 2 2 1 1 2 1 1 2 1 2 4 3 1 1 2 1 1 2 2 2 2 3 3 2 2 1 1 1 2 3 2 2 3 4 6 9 7 7 9 4 3 4 7 10 9 5 3 4 5 5 2 2 4 4 5 5 3 3 3 2 5 5 3 3 3 5 7 6 6 6 7 7 7 7 7 7 6 6 5 6 7 9
1 1 2 1 1 3 2 2 2 2 3 1 0 1 2 2 3 2 1 1 2 0 1 1 2 2 2 3 3 3 3 2 1 1 2 4 4 1 1 5 7 7 4 5 8 5 4 4 5 8 6 1 3 3 3 4 4 6 7 6 7 7 6 3 3 5 6 2 1 4 5 5 7 7 8 8 8 8 8 7 7 6 6 6 6 7 9 9
0 2 2 2 1 3 4 4 3 4 4 1 1 2 2 3 3 2 1 2 2 1 1 1 2 3 3 3 3 2 2 2 1 4 4 5 4 2 0 4 5 8 7 5 6 5 4 3 4 6 4 4 4 4 4 4 5 8 9 8 7 6 6 6 6 6 5 4 5 4 7 10 8 7 9 9 8 8 8 7 7 7 6 6 7 7 9 9
1 2 3 1 3 4 4 4 3 4 3 1 2 3 1 2 4 3 1 1 2 1 1 1 2 3 3 3 2 1 3 3 2 4 5 4 2 3 3 1 2 7 7 5 4 4 3 1 3 4 4 4 4 5 6 6 7 9 10 10 8 5 5 6 6 6 4 3 5 4 6 6 5 5 7 7 7 8 8 8 7 7 7 7 8 9 9 9
2 2 1 3 5 3 2 4 2 2 4 1 1 3 1 2 4 2 2 1 1 2 2 2 2 1 0 1 1 2 4 3 2 3 4 4 3 4 3 2 3 4 4 4 2 2 2 1 2 5 5 4 6 8 8 7 7 8 10 11 10 7 6 4 5 6 5 4 3 1 2 3 4 5 6 7 8 8 9 9 7 7 8 8 9 10 9 10
0 0 2 2 3 2 2 3 2 2 2 2 2 2 1 2 3 1 1 2 0 1 3 3 3 2 2 2 2 4 3 4 5 4 3 3 3 3 3 3 5 4 1 2 0 1 2 2 2 4 4 5 9 10 9 7 4 2 5 7 7 6 7 5 3 6 8 7 4 2 3 4 5 5 5 7 8 8 8 8 7 6 8 8 9 9 9 10
Wind_Direction
359 358 356 354 350 347 345 342 340 337 333 331 329 328 326 323 323 321 319 316 317 315 314 314 310 314 317 321 321 317 321 317 304 282 251 256 313 245 228 197 184 170 161 158 162 164 162 172 166 170 179 174 199 175 174 200 194 208 221 227 233 233 231 81 57 9 350 355 3 343 348 334 331 350 355 322 255 322 237 200 166 166 104 28 87 124 140 149
358 358 358 355 350 346 344 342 340 336 333 335 329 327 327 322 323 320 316 314 313 310 308 307 308 316 318 320 316 315 321 303 282 266 234 269 337 294 202 184 182 169 161 166 173 172 170 172 166 176 185 173 184 165 172 187 197 221 227 231 239 251 36 44 27 27 346 332 340 328 334 328 325 339 340 324 313 299 237 189 178 183 145 125 132 141 147 151
358 359 0 357 352 346 341 340 339 334 330 329 324 324 322 320 322 318 316 313 311 309 306 308 311 317 319 317 314 318 320 291 268 221 185 322 333 307 191 175 174 168 168 180 182 181 182 172 169 181 187 182 182 177 187 181 195 226 234 240 240 66 42 61 64 16 339 328 323 319 324 315 324 334 322 322 317 285 222 184 186 195 168 155 154 153 155 158
358 359 1 357 352 345 339 337 336 332 327 324 321 320 318 318 318 315 315 312 312 309 308 312 313 321 323 312 315 324 303 274 231 121 127 324 330 294 187 171 168 170 174 192 187 189 187 171 175 186 192 187 171 185 195 177 191 216 225 252 341 74 239 137 131 320 319 318 313 311 310 306 329 324 303 313 308 268 150 178 209 203 178 164 164 164 165 166
356 357 358 354 350 343 337 335 334 332 327 323 321 319 317 317 318 317 316 314 314 310 310 312 315 328 324 309 320 315 276 257 112 100 312 321 335 206 177 167 166 170 178 188 179 180 178 172 178 187 202 187 166 188 198 188 208 232 226 250 320 262 257 144 259 303 310 304 300 299 305 318 325 305 297 308 301 329 46 1 281 208 179 170 171 171 172 173
352 354 354 351 347 341 336 334 332 330 325 323 320 318 316 316 318 317 316 315 312 311 311 312 320 332 326 316 314 274 261 289 72 350 315 327 8 151 164 160 162 170 177 176 170 174 173 173 181 188 204 192 181 193 193 189 210 241 225 229 235 251 267 274 286 291 296 292 292 298 311 322 307 296 308 306 292 309 342 327 291 225 179 174 171 174 180 181
347 349 349 349 345 339 337 333 331 328 324 321 318 316 315 315 316 315 314 313 311 312 312 313 325 336 336 320 274 236 254 304 58 322 319 331 137 147 157 155 157 166 174 172 169 176 171 178 191 192 202 197 193 195 188 193 208 236 236 215 230 248 260 269 282 282 286 288 291 297 302 302 293 300 316 299 290 303 312 286 262 224 172 172 175 179 188 186
343 343 345 345 342 339 336 333 330 326 322 320 317 315 314 315 315 314 313 312 311 311 309 313 326 340 344 318 272 250 248 41 63 315 316 141 148 152 154 153 158 168 179 179 172 180 176 185 195 194 212 200 191 192 186 204 211 229 243 236 237 246 253 267 273 274 282 282 287 289 287 285 287 306 301 286 294 325 309 259 224 193 171 176 181 183 189 188
340 340 342 342 340 339 336 335 331 326 323 320 317 315 315 315 313 313 312 310 308 307 309 311 323 345 341 292 276 272 148 80 53 336 359 147 149 151 153 158 172 176 181 183 182 192 185 195 196 196 242 203 185 193 186 213 214 216 237 245 252 256 259 269 270 274 277 274 283 281 279 278 289 312 285 273 327 10 268 222 194 178 178 182 181 184 188 184
338 337 338 339 339 338 337 335 330 326 323 320 318 317 315 314 311 311 309 306 303 303 304 306 324 352 311 274 268 269 87 86 65 60 134 151 143 148 156 164 174 177 176 178 197 200 193 218 193 193 281 216 190 195 190 218 247 180 237 252 261 265 266 269 270 273 275 272 267 268 276 279 286 288 259 122 68 327 223 196 189 186 186 182 179 180 182 181
335 334 334 337 338 338 337 334 330 326 323 320 319 317 316 314 311 308 304 300 297 296 298 301 322 335 287 271 265 273 87 115 112 81 132 152 147 150 159 166 170 175 169 171 197 199 208 241 186 195 251 171 181 189 196 221 284 253 250 262 254 256 257 253 260 263 265 266 258 262 274 272 265 257 250 58 51 262 227 204 192 196 188 175 178 172 172 175
332 331 332 335 337 338 336 332 329 324 321 319 317 318 316 314 309 303 299 295 291 287 286 289 312 321 278 259 255 258 105 143 149 112 132 151 156 150 149 166 175 177 169 175 190 194 219 223 198 210 201 157 176 176 196 212 250 250 251 263 249 245 248 237 243 259 259 263 265 271 269 251 234 236 234 66 349 245 231 221 200 206 190 168 171 162 156 137
330 330 330 332 335 335 334 330 327 322 320 319 318 318 315 313 306 299 294 287 283 278 270 268 289 284 269 262 241 201 172 156 159 148 146 155 159 150 152 174 185 191 202 183 148 179 210 213 215 222 245 217 186 107 158 195 234 247 232 252 257 245 236 204 209 247 243 248 256 252 259 234 208 217 199 71 239 232 226 221 210 212 190 170 169 149 139 135
329 329 329 330 333 332 331 328 325 322 320 320 318 317 316 312 305 299 294 283 274 262 245 205 231 249 257 267 121 187 197 166 179 177 165 168 167 164 167 178 190 195 206 166 111 152 198 201 227 229 227 246 187 119 198 195 216 238 224 230 247 249 186 132 155 242 223 158 198 227 244 241 192 173 102 66 216 226 230 221 214 215 193 179 162 139 148 166
328 329 328 329 331 330 330 327 325 322 321 321 318 317 316 313 311 310 305 289 265 221 188 179 219 233 257 251 149 193 210 195 213 204 191 189 191 193 177 173 180 181 182 166 123 120 185 189 212 213 187 215 223 198 212 203 203 219 236 219 212 235 163 136 161 231 289 98 182 224 240 245 208 139 99 84 193 224 237 226 220 220 200 182 152 139 159 175
328 328 327 328 330 329 329 327 323 322 321 320 318 318 315 315 328 324 332 48 119 137 159 193 212 233 277 253 124 136 190 191 210 201 201 205 209 207 165 157 157 166 175 164 155 135 175 187 203 235 195 189 210 215 216 214 210 207 233 240 199 216 210 161 162 160 311 34 186 230 261 258 211 138 127 118 218 228 239 234 228 227 207 185 153 144 167 172
327 328 328 328 329 330 329 325 323 322 321 321 321 319 299 289 352 11 70 99 108 133 183 234 213 230 268 135 155 167 153 155 136 151 186 203 208 187 152 152 152 159 161 156 177 162 171 187 188 227 218 210 214 218 223 222 218 198 213 244 229 229 250 200 154 149 226 264 226 237 257 268 263 208 186 184 233 235 242 242 231 229 212 192 164 155 177 176
328 328 327 328 329 329 327 325 323 322 323 323 323 315 270 268 11 46 81 113 133 163 205 235 226 235 222 161 191 135 126 133 133 143 162 172 184 176 162 161 150 155 159 156 178 177 176 192 197 208 206 212 214 210 222 235 248 216 203 233 235 225 237 239 192 132 228 265 258 253 248 257 262 251 223 202 226 240 244 250 245 235 216 195 179 172 183 184
327 327 327 327 328 328 327 325 322 323 325 329 334 319 283 264 213 184 169 168 182 212 251 187 208 266 45 127 122 114 130 137 190 179 158 154 164 171 171 166 158 167 177 171 175 178 183 189 200 218 207 205 209 214 230 280 351 275 232 255 259 233 232 237 256 313 304 281 265 259 257 256 259 255 236 206 210 242 249 250 251 241 220 201 190 182 187 193
327 327 326 326 328 327 326 323 321 323 325 332 333 289 252 250 232 184 177 219 229 260 292 266 236 273 300 186 120 148 208 219 222 167 151 159 163 166 170 167 171 186 200 187 162 166 198 205 202 217 219 213 210 217 244 294 319 281 264 259 259 255 255 188 215 268 288 282 268 258 261 263 263 262 252 224 201 237 250 247 247 240 226 211 198 189 188 196
327 326 325 326 328 326 325 322 318 321 323 326 310 274 277 351 317 351 343 257 240 250 266 266 259 269 272 246 141 47 213 206 206 159 151 168 170 171 172 172 185 196 200 185 141 147 202 221 219 220 227 221 205 208 234 261 251 256 259 260 254 255 259 161 228 272 237 257 268 260 262 262 260 261 256 239 222 237 248 249 248 240 231 219 204 195 189 193
327 325 326 326 327 325 324 320 316 319 319 303 288 278 360 29 14 352 325 285 268 248 249 256 257 258 249 238 230 278 286 231 205 171 157 173 185 186 174 181 201 191 174 173 154 170 204 227 229 215 197 187 191 201 212 227 241 245 250 258 258 261 277 214 197 199 185 243 278 277 273 268 264 262 257 246 238 243 246 249 252 244 235 226 209 197 190 190
326 326 326 327 328 325 321 317 317 318 306 256 288 281 45 39 13 315 264 283 288 235 229 239 239 242 235 236 221 208 233 232 217 188 167 179 197 195 180 187 206 191 172 190 201 203 205 226 223 189 166 187 189 193 206 218 231 235 241 251 252 255 278 237 173 169 217 263 281 288 284 275 268 260 254 249 244 247 245 244 251 248 240 230 216 203 195 192
326 326 326 327 326 322 322 322 318 306 243 289 283 260 42 7 350 310 248 276 285 209 195 214 236 249 231 225 188 194 213 221 224 193 169 181 192 187 195 196 202 201 193 203 213 224 223 113 172 181 183 200 198 192 208 225 233 231 235 249 263 269 273 272 258 268 278 255 247 267 274 262 253 245 243 237 230 239 240 229 232 236 235 233 222 208 202 196
326 325 326 328 325 324 329 328 310 219 300 297 255 199 319 332 333 292 255 270 243 174 157 177 202 213 154 124 170 190 213 214 225 196 169 189 192 175 196 200 203 211 207 205 212 234 233 114 152 199 195 205 211 206 213 226 246 241 224 235 260 271 272 272 271 275 279 249 202 224 263 256 237 234 237 223 210 221 218 216 227 228 224 225 221 212 204 198
326 325 327 326 326 331 338 336 188 303 301 282 158 157 307 319 313 251 253 267 201 152 151 182 184 147 147 161 164 181 207 198 209 193 178 198 200 188 196 185 204 230 212 200 210 245 226 147 178 208 197 208 219 223 219 217 247 255 204 217 246 261 268 268 256 233 262 278 156 198 265 274 247 225 219 212 212 216 205 212 235 236 231 227 223 216 205 199
324 323 325 325 327 337 345 326 315 305 288 138 133 225 305 312 288 207 243 245 181 129 145 165 131 111 118 161 170 190 189 128 157 181 189 202 196 198 214 186 193 229 187 176 210 221 203 186 194 203 202 211 218 224 209 203 240 254 112 186 240 255 266 250 237 229 259 308 181 209 245 269 266 238 207 211 227 227 211 205 239 259 260 249 237 225 211 204
322 321 323 322 321 325 310 292 301 292 270 107 156 281 316 309 225 198 253 240 148 108 152 113 99 131 98 151 193 219 322 72 174 171 174 196 193 197 219 207 202 197 168 186 219 156 181 202 200 203 214 222 224 230 203 199 238 252 106 201 263 280 275 244 231 231 246 284 240 218 217 244 262 238 199 210 229 233 211 163 45 355 304 271 248 231 216 207
320 319 320 320 321 320 283 265 270 261 243 195 271 314 321 270 207 220 259 253 156 139 132 114 138 168 142 163 204 227 252 275 243 136 156 185 201 218 233 225 216 194 176 207 240 128 151 211 213 211 220 224 229 235 219 208 232 251 150 235 257 256 254 233 231 235 214 242 253 227 200 230 263 242 215 211 226 242 213 80 38 17 347 288 248 236 218 207
318 316 317 319 324 328 275 252 253 250 250 266 303 325 294 222 222 229 220 231 163 126 128 165 164 218 282 222 199 205 221 239 95 140 166 175 192 214 259 244 221 198 180 214 242 168 116 117 227 223 226 232 239 234 219 221 229 233 211 226 226 214 216 212 226 242 223 231 249 233 204 234 265 256 246 216 213 331 7 14 11 10 352 315 225 228 212 198
315 312 313 309 305 302 274 255 242 222 217 285 329 307 243 208 242 239 183 161 269 123 143 171 161 305 306 282 192 178 200 209 154 158 170 170 183 197 198 194 202 203 195 211 229 206 172 180 199 214 219 233 250 210 189 220 226 227 234 231 222 204 198 209 206 212 237 239 239 213 207 232 253 259 268 92 73 6 5 2 1 356 339 330 178 188 175 164
311 308 303 289 272 257 249 231 105 199 242 309 319 253 216 199 227 233 152 164 247 65 80 42 340 329 315 281 205 175 189 190 177 175 177 179 183 190 196 191 180 195 207 205 206 202 203 213 212 208 206 213 233 209 173 194 211 220 232 229 229 216 198 218 212 204 234 232 137 146 207 233 249 265 49 84 58 21 24 18 9 358 343 4 149 152 147 151
309 306 299 282 255 240 239 238 252 260 270 288 265 219 221 227 218 215 205 186 74 30 18 328 315 316 292 255 174 165 190 173 178 189 187 189 192 192 201 206 197 203 221 207 202 203 207 211 210 211 204 203 223 222 182 186 200 212 221 219 228 228 214 226 223 218 234 215 129 157 226 248 249 267 56 57 42 31 32 35 31 26 28 63 117 129 137 151
309 304 293 273 242 234 235 236 239 243 253 245 218 197 214 226 195 90 246 105 45 354 324 323 309 293 260 258 60 154 208 161 168 189 186 189 199 194 197 208 207 212 226 205 209 220 222 214 198 205 199 185 204 223 224 214 201 206 219 229 236 241 238 242 243 246 247 215 134 159 207 256 254 124 61 54 51 41 40 51 51 46 48 61 89 114 122 124
318 312 285 257 242 239 230 221 212 196 214 226 208 195 207 215 185 159 205 49 34 331 312 317 297 267 198 149 67 350 267 165 177 193 187 185 197 199 196 198 202 210 217 204 198 213 233 237 174 182 176 176 196 211 224 238 223 198 213 233 240 246 247 255 287 313 294 264 203 180 223 269 238 109 89 84 70 54 53 59 58 56 61 65 73 92 105 107
330 322 276 228 230 243 213 203 193 189 223 221 200 203 212 256 15 104 45 11 7 338 315 274 251 260 202 162 146 132 160 210 191 194 188 185 194 197 196 190 193 206 213 209 195 200 230 229 145 161 183 199 210 205 205 225 229 182 207 225 228 254 261 256 214 114 262 265 244 201 247 259 193 136 103 98 80 66 64 67 68 67 67 71 75 83 99 109
325 299 236 134 171 206 176 176 176 190 227 221 205 213 214 56 20 34 41 3 329 330 310 269 167 305 243 180 147 116 155 197 193 203 197 185 190 196 202 193 188 206 217 224 228 220 239 224 157 178 194 185 205 226 209 223 230 199 212 222 195 231 255 253 244 222 231 252 244 218 251 259 237 200 100 95 82 78 75 72 75 73 69 70 73 81 90 100
310 284 146 81 62 151 145 154 169 195 219 216 205 188 287 174 65 26 20 354 304 286 290 277 45 336 275 216 142 74 327 212 194 208 205 188 185 280 223 202 186 211 228 237 235 211 240 237 175 181 194 161 166 216 215 212 224 234 267 278 234 230 228 220 234 247 247 253 253 235 243 257 260 221 111 110 94 94 93 84 81 77 79 81 77 86 98 106
284 245 146 45 34 148 139 151 182 214 211 209 201 160 190 189 139 186 302 327 275 270 280 285 351 287 298 311 325 56 336 267 198 209 216 198 192 314 301 223 180 208 235 240 234 207 226 244 197 167 175 163 172 207 213 193 204 228 255 256 245 255 247 226 231 245 249 256 257 246 238 241 360 45 95 99 87 97 103 100 95 84 86 95 91 93 99 107
261 216 121 40 156 151 142 174 209 218 198 210 219 152 161 170 166 194 250 282 262 266 292 303 262 256 321 322 318 22 334 312 226 224 224 192 186 180 32 357 277 196 212 228 232 223 213 234 227 167 162 185 196 208 228 214 199 209 222 224 222 226 235 244 248 245 254 263 257 253 253 181 53 31 52 73 73 92 101 100 106 110 103 90 85 84 78 84
247 197 109 75 160 156 177 217 207 204 190 175 136 142 144 325 217 186 172 245 261 267 301 296 275 285 318 300 309 358 313 278 236 233 227 195 196 180 82 13 320 309 191 213 216 215 211 221 232 207 188 209 193 111 45 309 255 231 231 227 227 227 225 238 238 226 239 263 268 272 269 90 65 22 40 66 56 77 100 105 104 96 75 64 67 65 60 73
230 180 108 126 150 175 238 215 128 212 209 135 114 117 81 332 278 209 170 205 239 235 247 273 273 277 296 296 323 345 314 272 233 215 236 180 88 48 38 5 305 259 232 220 197 189 263 242 236 230 230 221 118 99 90 31 332 254 247 247 248 240 229 237 241 226 224 237 254 272 267 90 69 39 63 71 47 50 67 97 97 76 57 55 55 46 41 50
194 123 107 137 141 281 261 179 127 201 147 90 68 98 72 273 233 216 194 200 222 222 219 243 264 264 278 344 324 323 326 298 284 114 233 108 73 45 25 12 281 234 237 226 152 97 231 245 239 232 233 210 131 130 149 171 218 221 213 237 265 256 244 252 267 274 247 233 228 250 249 132 85 76 86 86 75 63 57 68 82 80 66 53 44 36 31 36
150 108 126 154 208 289 269 164 138 145 109 107 138 127 132 253 298 267 218 186 210 225 234 240 254 274 297 342 311 313 333 301 248 65 11 64 77 49 27 20 14 110 349 315 180 171 202 228 230 226 222 206 185 185 187 197 219 215 132 73 314 288 263 259 270 267 254 246 239 249 256 104 119 139 112 104 96 81 63 55 58 63 59 44 36 33 28 32
148 123 136 158 209 258 276 34 18 111 116 129 119 106 143 155 78 331 301 64 41 298 266 259 288 293 293 290 276 286 323 306 303 18 349 59 96 78 31 24 37 47 39 26 5 215 210 218 227 236 231 212 205 210 207 214 210 161 103 65 17 330 262 253 253 238 240 240 235 249 257 124 144 150 134 123 103 89 69 55 53 51 48 41 40 34 29 36
167 151 147 157 186 213 104 57 306 136 130 139 120 103 166 151 114 66 276 91 78 45 334 357 308 270 277 288 266 247 280 304 308 324 343 12 87 75 29 25 33 32 42 46 26 247 209 187 216 243 259 251 251 20 354 324 260 158 99 66 33 4 292 264 251 242 265 253 229 247 214 142 146 146 141 123 91 87 73 57 54 50 46 45 48 45 41 42
192 170 156 163 176 174 154 159 196 103 125 168 145 109 127 150 136 142 220 5 72 75 314 29 6 270 286 312 274 258 302 278 259 324 360 356 19 70 46 51 34 17 30 44 21 353 232 217 203 218 247 276 18 33 12 359 360 44 45 44 30 15 341 262 252 315 317 274 236 327 351 131 133 123 123 109 88 84 72 59 56 53 51 53 57 60 55 46
223 158 128 327 210 157 146 139 126 110 114 117 110 117 122 134 148 155 155 135 112 69 253 130 52 32 27 351 289 257 279 246 145 33 17 4 2 15 110 98 67 27 33 63 37 14 278 252 193 197 216 168 78 80 54 40 51 49 36 30 24 22 27 36 34 12 346 317 67 13 13 65 83 78 77 79 79 80 73 67 68 65 62 65 65 59 52 45
136 136 111 334 312 107 88 102 131 130 112 98 125 121 111 104 105 107 114 185 162 60 339 174 65 40 39 356 300 270 306 287 80 52 24 8 8 352 17 112 75 29 31 71 67 37 313 270 191 189 178 121 109 126 127 120 89 64 41 25 21 23 35 45 34 12 12 51 75 84 76 61 50 56 71 77 82 85 82 76 74 69 64 66 68 62 55 50
214 139 124 140 121 97 98 124 156 144 128 199 152 115 98 80 77 79 73 263 183 107 5 20 59 35 30 359 317 80 50 14 39 44 11 356 16 19 16 73 29 13 25 46 56 46 7 284 194 195 183 140 131 139 135 129 105 82 58 35 25 27 35 37 24 5 2 57 72 104 104 73 51 63 79 88 90 87 83 71 63 59 58 66 70 67 63 60
348 4 288 173 130 114 144 144 182 171 141 172 151 122 139 81 54 59 99 52 357 53 34 14 29 29 51 355 342 79 64 13 347 5 354 342 346 354 1 353 327 347 40 44 22 42 42 339 262 235 221 180 154 149 133 115 106 87 58 32 20 23 20 10 27 24 3 358 359 190 133 92 99 91 82 85 83 79 76 67 59 56 56 63 69 67 65 63
288 306 263 228 137 153 196 154 187 203 113 81 88 109 117 77 54 16 133 121 269 43 34 2 338 311 233 172 78 46 12 325 313 316 322 320 320 316 302 307 304 299 29 69 125 115 102 140 249 270 247 184 160 154 142 138 149 111 47 12 357 10 3 346 34 35 10 348 322 298 54 77 123 125 97 87 79 72 67 57 52 58 59 62 65 65 65 63